TimeCDT,TemperatureF,Dew PointF,Humidity,Sea Level PressureIn,VisibilityMPH,Wind Direction,Wind SpeedMPH,Gust SpeedMPH,PrecipitationIn,Events,Conditions,WindDirDegrees,DateUTC
12:16 AM,63.7,42.8,47,29.78,10.0,SSE,9.2,18.4,N/A,,Clear,160,2013-09-30 05:16:00
12:36 AM,62.6,42.8,48,29.76,10.0,SSE,11.5,19.6,N/A,,Clear,160,2013-09-30 05:36:00
12:56 AM,62.1,43.0,50,29.76,10.0,SSE,9.2,-,N/A,,Clear,160,2013-09-30 05:56:00
1:16 AM,62.1,43.7,51,29.76,10.0,South,10.4,19.6,N/A,,Clear,170,2013-09-30 06:16:00
1:36 AM,61.2,43.3,52,29.76,10.0,SSE,9.2,18.4,N/A,,Clear,160,2013-09-30 06:36:00
1:55 AM,60.6,43.2,53,29.76,10.0,South,10.4,16.1,N/A,,Clear,170,2013-09-30 06:55:00
2:16 AM,60.6,43.3,53,29.74,10.0,SSE,9.2,17.3,N/A,,Clear,160,2013-09-30 07:16:00
2:36 AM,60.6,43.7,54,29.73,10.0,SSE,10.4,17.3,N/A,,Clear,160,2013-09-30 07:36:00
2:56 AM,60.8,43.7,53,29.72,10.0,SSE,11.5,18.4,N/A,,Clear,160,2013-09-30 07:56:00
3:16 AM,61.0,43.7,53,29.72,10.0,South,9.2,20.7,N/A,,Clear,170,2013-09-30 08:16:00
3:36 AM,61.3,43.9,53,29.71,10.0,SSE,11.5,24.2,N/A,,Clear,160,2013-09-30 08:36:00
3:56 AM,61.9,43.9,52,29.71,10.0,South,11.5,21.9,N/A,,Clear,170,2013-09-30 08:56:00
4:16 AM,62.1,43.9,51,29.71,10.0,South,11.5,20.7,N/A,,Clear,170,2013-09-30 09:16:00
4:36 AM,60.3,43.7,54,29.71,10.0,South,9.2,16.1,N/A,,Clear,170,2013-09-30 09:36:00
4:56 AM,59.5,44.1,57,29.69,10.0,SSE,9.2,16.1,N/A,,Clear,160,2013-09-30 09:56:00
5:16 AM,58.6,44.2,59,29.70,10.0,South,8.1,-,N/A,,Clear,170,2013-09-30 10:16:00
5:36 AM,58.1,44.6,61,29.69,10.0,SSE,8.1,-,N/A,,Clear,160,2013-09-30 10:36:00
5:56 AM,57.6,44.6,62,29.69,10.0,SSE,9.2,16.1,N/A,,Clear,160,2013-09-30 10:56:00
6:16 AM,57.2,44.8,63,29.68,10.0,South,9.2,-,N/A,,Clear,170,2013-09-30 11:16:00
6:36 AM,57.0,45.0,64,29.68,10.0,South,6.9,-,N/A,,Clear,170,2013-09-30 11:36:00
6:56 AM,56.7,45.1,65,29.68,10.0,SSE,8.1,-,N/A,,Clear,160,2013-09-30 11:56:00
7:16 AM,56.7,45.1,65,29.67,10.0,SSE,10.4,17.3,N/A,,Clear,160,2013-09-30 12:16:00
7:36 AM,56.7,45.5,66,29.68,10.0,South,9.2,-,N/A,,Clear,170,2013-09-30 12:36:00
7:56 AM,56.8,45.7,66,29.67,10.0,SSE,8.1,-,N/A,,Clear,160,2013-09-30 12:56:00
8:16 AM,57.2,45.9,66,29.69,10.0,South,9.2,-,N/A,,Clear,170,2013-09-30 13:16:00
8:36 AM,57.6,46.2,66,29.69,10.0,South,9.2,-,N/A,,Clear,170,2013-09-30 13:36:00
8:56 AM,58.3,46.6,65,29.68,10.0,SSE,5.8,-,N/A,,Clear,160,2013-09-30 13:56:00
9:16 AM,59.5,46.8,63,29.67,10.0,South,6.9,17.3,N/A,,Clear,170,2013-09-30 14:16:00
9:36 AM,60.4,46.9,61,29.67,10.0,South,6.9,17.3,N/A,,Clear,180,2013-09-30 14:36:00
9:56 AM,62.1,47.3,58,29.67,10.0,South,9.2,-,N/A,,Clear,170,2013-09-30 14:56:00
10:16 AM,62.6,47.3,57,29.67,10.0,South,11.5,17.3,N/A,,Clear,180,2013-09-30 15:16:00
10:36 AM,64.4,47.5,54,29.67,10.0,South,10.4,-,N/A,,Clear,170,2013-09-30 15:36:00
10:56 AM,65.5,47.8,53,29.67,10.0,South,10.4,-,N/A,,Clear,190,2013-09-30 15:56:00
11:16 AM,66.2,47.1,50,29.67,10.0,South,13.8,20.7,N/A,,Clear,180,2013-09-30 16:16:00
11:36 AM,67.3,48.0,50,29.67,10.0,South,9.2,-,N/A,,Clear,190,2013-09-30 16:36:00
11:56 AM,68.4,47.7,48,29.66,10.0,South,12.7,18.4,N/A,,Clear,180,2013-09-30 16:56:00
12:16 PM,69.4,47.5,45,29.67,10.0,South,12.7,18.4,N/A,,Clear,180,2013-09-30 17:16:00
12:36 PM,70.7,48.0,44,29.66,10.0,South,10.4,-,N/A,,Clear,190,2013-09-30 17:36:00
12:56 PM,70.9,47.5,43,29.66,10.0,South,10.4,18.4,N/A,,Clear,170,2013-09-30 17:56:00
1:16 PM,70.9,47.7,44,29.65,10.0,SSE,10.4,18.4,N/A,,Clear,160,2013-09-30 18:16:00
1:36 PM,72.1,48.7,43,29.64,10.0,South,13.8,23.0,N/A,,Clear,170,2013-09-30 18:36:00
1:56 PM,72.5,47.5,41,29.64,10.0,South,9.2,18.4,N/A,,Clear,180,2013-09-30 18:56:00
2:16 PM,73.8,47.8,40,29.63,10.0,South,12.7,18.4,N/A,,Clear,180,2013-09-30 19:16:00
2:36 PM,74.7,47.5,38,29.62,10.0,SSE,9.2,16.1,N/A,,Clear,160,2013-09-30 19:36:00
2:56 PM,75.9,48.4,38,29.62,10.0,South,8.1,11.5,N/A,,Clear,170,2013-09-30 19:56:00
3:16 PM,76.6,47.1,35,29.61,10.0,South,6.9,16.1,N/A,,Clear,180,2013-09-30 20:16:00
3:36 PM,77.2,46.4,34,29.61,10.0,South,11.5,21.9,N/A,,Clear,180,2013-09-30 20:36:00
3:56 PM,77.9,46.8,33,29.61,10.0,South,9.2,18.4,N/A,,Clear,170,2013-09-30 20:56:00
4:16 PM,78.1,46.8,33,29.60,10.0,South,10.4,18.4,N/A,,Clear,170,2013-09-30 21:16:00
4:36 PM,78.8,47.3,33,29.60,10.0,South,8.1,-,N/A,,Clear,180,2013-09-30 21:36:00
4:55 PM,79.7,47.7,32,29.59,10.0,South,10.4,-,N/A,,Clear,170,2013-09-30 21:55:00
5:16 PM,78.8,48.7,35,29.59,10.0,South,5.8,-,N/A,,Clear,170,2013-09-30 22:16:00
5:36 PM,79.2,47.1,32,29.59,10.0,South,8.1,-,N/A,,Clear,170,2013-09-30 22:36:00
5:55 PM,78.3,46.6,33,29.59,10.0,South,6.9,-,N/A,,Clear,170,2013-09-30 22:55:00
6:16 PM,77.2,47.5,35,29.60,10.0,SSE,4.6,-,N/A,,Clear,150,2013-09-30 23:16:00
6:36 PM,75.2,49.8,41,29.60,10.0,SSE,3.5,-,N/A,,Clear,150,2013-09-30 23:36:00
6:55 PM,73.2,50.2,44,29.60,10.0,SE,4.6,-,N/A,,Clear,140,2013-09-30 23:55:00
7:16 PM,71.2,50.7,48,29.61,10.0,SE,3.5,-,N/A,,Clear,140,2013-10-01 00:16:00
7:36 PM,69.4,50.9,52,29.61,10.0,SE,4.6,-,N/A,,Clear,140,2013-10-01 00:36:00
7:56 PM,69.1,51.1,53,29.61,10.0,SE,5.8,-,N/A,,Clear,140,2013-10-01 00:56:00
8:16 PM,69.1,50.9,52,29.61,10.0,SSE,5.8,-,N/A,,Clear,150,2013-10-01 01:16:00
8:36 PM,68.4,50.7,53,29.62,10.0,SSE,5.8,-,N/A,,Clear,150,2013-10-01 01:36:00
8:55 PM,68.2,50.7,54,29.62,10.0,SSE,3.5,-,N/A,,Clear,160,2013-10-01 01:55:00
9:16 PM,67.5,50.7,55,29.63,10.0,SSE,3.5,-,N/A,,Clear,150,2013-10-01 02:16:00
9:36 PM,66.6,50.9,57,29.63,10.0,SE,4.6,-,N/A,,Clear,140,2013-10-01 02:36:00
9:55 PM,66.4,51.1,58,29.63,10.0,SSE,5.8,-,N/A,,Clear,150,2013-10-01 02:55:00
10:16 PM,65.7,50.9,59,29.62,10.0,SSE,4.6,-,N/A,,Clear,150,2013-10-01 03:16:00
10:36 PM,66.2,50.9,58,29.63,10.0,SSE,5.8,-,N/A,,Clear,160,2013-10-01 03:36:00
10:55 PM,66.4,50.4,56,29.62,10.0,SSE,8.1,-,N/A,,Clear,160,2013-10-01 03:55:00
11:16 PM,66.4,50.4,56,29.62,10.0,SSE,8.1,-,N/A,,Clear,160,2013-10-01 04:16:00
11:36 PM,66.4,50.2,56,29.62,10.0,South,10.4,-,N/A,,Clear,170,2013-10-01 04:36:00
11:56 PM,66.4,50.2,56,29.62,10.0,South,9.2,-,N/A,,Clear,170,2013-10-01 04:56:00